When you browse on this site, cookies collect data to enhance your experience and personalize the content and advertising you see.
Visit our Privacy Policy to learn more. By continuing to use the site, you agree to this use of cookies and data.
  • In United Kingdom
  • List of Countries
  • For 7 days
  • Water Temperature
  • Satellite Maps
  • Weather Map
  • Weather Widgets
  • user-avatar
    Login

    Hourly Weather Lorient

    Today, 10 December, Monday

    Time Temperature Precipitation Wind Pressure Humidity
    00:00 +7°C° 0 mm 5 mps 771 mmHg 87%
    01:00 +6°C° 0 mm 5 mps 771 mmHg 87%
    02:00 +6°C° 0 mm 5 mps 771 mmHg 88%
    03:00 +6°C° 0 mm 5 mps 771 mmHg 88%
    04:00 +6°C° 0 mm 5 mps 771 mmHg 89%
    05:00 +6°C° 0 mm 4 mps 771 mmHg 89%
    06:00 +6°C° 0 mm 4 mps 772 mmHg 90%
    07:00 +7°C° 0 mm 3 mps 771 mmHg 89%
    08:00 +7°C° 0 mm 3 mps 771 mmHg 89%
    09:00 +7°C° 0 mm 2 mps 771 mmHg 88%
    10:00 +8°C° 0 mm 2 mps 772 mmHg 83%
    11:00 +10°C° 0 mm 2 mps 772 mmHg 78%
    12:00 +12°C° 0 mm 2 mps 772 mmHg 73%
    13:00 +12°C° 0 mm 2 mps 771 mmHg 74%
    14:00 +12°C° 0 mm 1 mps 771 mmHg 75%
    15:00 +12°C° 0 mm 1 mps 771 mmHg 76%
    16:00 +11°C° 0 mm 1 mps 771 mmHg 79%
    17:00 +10°C° 0 mm 1 mps 770 mmHg 82%
    18:00 +8°C° 0 mm 0 mps 770 mmHg 84%
    19:00 +9°C° 0 mm 1 mps 770 mmHg 86%
    20:00 +8°C° 0 mm 1 mps 770 mmHg 87%
    21:00 +8°C° 0 mm 1 mps 770 mmHg 89%
    22:00 +8°C° 0 mm 1 mps 770 mmHg 89%
    23:00 +7°C° 0 mm 2 mps 769 mmHg 90%

    Tomorrow, 11 December, Tuesday

    Time Temperature Precipitation Wind Pressure Humidity
    00:00 +7°C° 0 mm 2 mps 769 mmHg 90%
    01:00 +6°C° 0 mm 2 mps 769 mmHg 91%
    02:00 +5°C° 0 mm 3 mps 768 mmHg 91%
    03:00 +5°C° 0 mm 3 mps 768 mmHg 92%
    04:00 +5°C° 0 mm 3 mps 767 mmHg 92%
    05:00 +5°C° 0 mm 4 mps 767 mmHg 93%
    06:00 +5°C° 0 mm 4 mps 766 mmHg 93%
    07:00 +5°C° 0 mm 5 mps 766 mmHg 92%
    08:00 +5°C° 0 mm 5 mps 766 mmHg 92%
    09:00 +4°C° 0 mm 6 mps 766 mmHg 91%
    10:00 +5°C° 0 mm 6 mps 765 mmHg 87%
    11:00 +7°C° 0 mm 6 mps 765 mmHg 83%
    12:00 +8°C° 0 mm 7 mps 765 mmHg 79%
    13:00 +8°C° 0 mm 6 mps 764 mmHg 80%
    14:00 +8°C° 0 mm 6 mps 764 mmHg 81%
    15:00 +8°C° 0 mm 6 mps 763 mmHg 82%
    16:00 +8°C° 0 mm 6 mps 762 mmHg 84%
    17:00 +8°C° 0 mm 6 mps 762 mmHg 86%
    18:00 +7°C° 0 mm 6 mps 761 mmHg 89%
    19:00 +6°C° 0.6 mm 7 mps 761 mmHg 89%
    20:00 +8°C° 0.6 mm 7 mps 761 mmHg 90%
    21:00 +8°C° 0.6 mm 7 mps 761 mmHg 91%
    22:00 +8°C° 1.1 mm 7 mps 761 mmHg 91%
    23:00 +7°C° 1.1 mm 8 mps 761 mmHg 91%

    Day after tomorrow, 12 December, Wednesday

    Time Temperature Precipitation Wind Pressure Humidity
    00:00 +7°C° 1.1 mm 8 mps 761 mmHg 91%
    01:00 +8°C° 0.1 mm 7 mps 761 mmHg 90%
    02:00 +6°C° 0.1 mm 7 mps 761 mmHg 89%
    03:00 +6°C° 0.1 mm 7 mps 762 mmHg 88%
    04:00 +6°C° 0 mm 7 mps 762 mmHg 88%
    05:00 +6°C° 0 mm 7 mps 762 mmHg 87%
    06:00 +5°C° 0 mm 6 mps 762 mmHg 87%
    07:00 +7°C° 0 mm 6 mps 762 mmHg 86%
    08:00 +7°C° 0 mm 5 mps 762 mmHg 86%
    09:00 +7°C° 0 mm 5 mps 762 mmHg 85%
    10:00 +8°C° 0 mm 4 mps 762 mmHg 80%
    11:00 +10°C° 0 mm 3 mps 761 mmHg 75%
    12:00 +11°C° 0 mm 3 mps 761 mmHg 71%
    13:00 +10°C° 0 mm 2 mps 761 mmHg 72%
    14:00 +10°C° 0 mm 2 mps 760 mmHg 74%
    15:00 +10°C° 0 mm 2 mps 760 mmHg 76%
    16:00 +9°C° 0 mm 2 mps 759 mmHg 78%
    17:00 +8°C° 0 mm 2 mps 759 mmHg 80%
    18:00 +8°C° 0 mm 2 mps 759 mmHg 82%
    19:00 +8°C° 0.2 mm 3 mps 758 mmHg 82%
    20:00 +7°C° 0.2 mm 4 mps 758 mmHg 83%
    21:00 +7°C° 0.2 mm 4 mps 757 mmHg 84%
    22:00 +7°C° 0.2 mm 5 mps 756 mmHg 85%
    23:00 +7°C° 0.2 mm 5 mps 755 mmHg 85%

    13 December, Thursday

    Time Temperature Precipitation Wind Pressure Humidity
    00:00 +7°C° 0.2 mm 6 mps 754 mmHg 86%
    01:00 +6°C° 0.4 mm 7 mps 753 mmHg 87%
    02:00 +6°C° 0.4 mm 8 mps 752 mmHg 88%
    03:00 +6°C° 0.4 mm 9 mps 751 mmHg 89%
    04:00 +6°C° 0.7 mm 9 mps 750 mmHg 89%
    05:00 +6°C° 0.7 mm 9 mps 750 mmHg 89%
    06:00 +7°C° 0.7 mm 9 mps 749 mmHg 90%
    07:00 +7°C° 0.8 mm 9 mps 749 mmHg 90%
    08:00 +7°C° 0.8 mm 8 mps 748 mmHg 90%
    09:00 +7°C° 0.8 mm 8 mps 748 mmHg 91%
    10:00 +7°C° 0.3 mm 8 mps 749 mmHg 88%
    11:00 +8°C° 0.3 mm 7 mps 749 mmHg 86%
    12:00 +8°C° 0.3 mm 7 mps 750 mmHg 83%
    13:00 +8°C° 0 mm 7 mps 750 mmHg 81%
    14:00 +9°C° 0 mm 7 mps 751 mmHg 80%
    15:00 +9°C° 0 mm 7 mps 752 mmHg 78%
    16:00 +8°C° 0 mm 7 mps 752 mmHg 79%
    17:00 +6°C° 0 mm 7 mps 753 mmHg 80%
    18:00 +6°C° 0 mm 7 mps 754 mmHg 81%
    19:00 +7°C° 0 mm 6 mps 754 mmHg 81%
    20:00 +5°C° 0 mm 6 mps 755 mmHg 81%
    21:00 +5°C° 0 mm 6 mps 756 mmHg 81%
    22:00 +5°C° 0 mm 7 mps 756 mmHg 82%
    23:00 +6°C° 0 mm 7 mps 756 mmHg 83%

    14 December, Friday

    Time Temperature Precipitation Wind Pressure Humidity
    00:00 +6°C° 0 mm 7 mps 757 mmHg 84%
    01:00 +6°C° 0 mm 7 mps 757 mmHg 84%
    02:00 +6°C° 0 mm 7 mps 758 mmHg 85%
    03:00 +7°C° 0 mm 8 mps 758 mmHg 86%
    04:00 +7°C° 0 mm 8 mps 759 mmHg 86%
    05:00 +7°C° 0 mm 8 mps 759 mmHg 86%
    06:00 +7°C° 0 mm 8 mps 759 mmHg 86%
    07:00 +7°C° 0 mm 8 mps 760 mmHg 86%
    08:00 +7°C° 0 mm 8 mps 761 mmHg 85%
    09:00 +8°C° 0 mm 7 mps 762 mmHg 85%
    10:00 +8°C° 0 mm 7 mps 762 mmHg 81%
    11:00 +9°C° 0 mm 7 mps 763 mmHg 77%
    12:00 +9°C° 0 mm 6 mps 763 mmHg 73%
    13:00 +9°C° 0 mm 6 mps 763 mmHg 75%
    14:00 +9°C° 0 mm 5 mps 764 mmHg 77%
    15:00 +9°C° 0 mm 5 mps 764 mmHg 79%
    16:00 +9°C° 0 mm 6 mps 764 mmHg 82%
    17:00 +9°C° 0 mm 6 mps 763 mmHg 85%
    18:00 +9°C° 0 mm 7 mps 763 mmHg 88%
    19:00 +9°C° 0.2 mm 8 mps 763 mmHg 89%
    20:00 +10°C° 0.2 mm 8 mps 764 mmHg 90%
    21:00 +10°C° 0.2 mm 9 mps 764 mmHg 91%
    22:00 +11°C° 0.8 mm 9 mps 763 mmHg 91%
    23:00 +11°C° 0.8 mm 10 mps 763 mmHg 92%

    15 December, Saturday

    Time Temperature Precipitation Wind Pressure Humidity
    00:00 +11°C° 0.8 mm 10 mps 763 mmHg 93%
    01:00 +11°C° 0.3 mm 10 mps 763 mmHg 92%
    02:00 +11°C° 0.3 mm 10 mps 763 mmHg 92%
    03:00 +11°C° 0.3 mm 10 mps 762 mmHg 92%
    04:00 +11°C° 0.5 mm 10 mps 762 mmHg 92%
    05:00 +11°C° 0.5 mm 10 mps 762 mmHg 92%
    06:00 +11°C° 0.5 mm 10 mps 761 mmHg 92%
    07:00 +12°C° 0.2 mm 11 mps 762 mmHg 92%
    08:00 +12°C° 0.2 mm 11 mps 762 mmHg 91%
    09:00 +12°C° 0.2 mm 11 mps 762 mmHg 91%
    10:00 +12°C° 0.1 mm 11 mps 762 mmHg 89%
    11:00 +12°C° 0.1 mm 12 mps 761 mmHg 88%
    12:00 +12°C° 0.1 mm 12 mps 761 mmHg 87%
    13:00 +12°C° 1.1 mm 12 mps 761 mmHg 88%
    14:00 +12°C° 1.1 mm 11 mps 761 mmHg 89%
    15:00 +12°C° 1.1 mm 11 mps 761 mmHg 90%
    16:00 +11°C° 0.4 mm 9 mps 761 mmHg 91%
    17:00 +11°C° 0.4 mm 7 mps 762 mmHg 91%
    18:00 +10°C° 0.4 mm 6 mps 762 mmHg 92%
    19:00 +9°C° 0 mm 5 mps 763 mmHg 92%
    20:00 +9°C° 0 mm 5 mps 764 mmHg 91%
    21:00 +8°C° 0 mm 5 mps 764 mmHg 91%
    22:00 +8°C° 0.2 mm 5 mps 765 mmHg 90%
    23:00 +8°C° 0.2 mm 6 mps 765 mmHg 89%
    Show more